Tracking 28790 objects as of 19-Apr-2024
HD Live streaming from Space Station
objects crossing your sky now

COSMOS 516

Track COSMOS 516 now!
10-day predictions
COSMOS 516 is classified as:


NORAD ID: 6154
Int'l Code: 1972-066A
Perigee: 917.2 km
Apogee: 1,040.9 km
Inclination: 64.8 °
Period: 104.5 minutes
Semi major axis: 7350 km
RCS: 3.1093 m2 (large)
Launch date: August 21, 1972
Source: Commonwealth of Independent States (former USSR) (CIS)
Launch site: TYURATAM MISSILE AND SPACE COMPLEX (TTMTR)
Your satellite tracking list
Your tracking list is empty




NASA's NSSDC Master Catalog

Two Line Element Set (TLE):
1 06154U 72066A   24109.33690059 -.00000014  00000-0  72399-4 0  9998
2 06154  64.8102  68.8095 0084113 312.9156  46.4861 13.77740835599107
Source of the keplerian elements: AFSPC